Regional Weather Roundup
Issued by NWS

Home | Current Version | Previous Version | Graphics & Text | Print | Product List | Glossary On
Versions: 1 2 3 4 5 6 7 8 9 10 11 12 13 14 15 16 17 18 19 20 21 22 23 24 25 26 27 28 29 30 31 32 33 34 35 36 37 38 39 40 41 42 43 44 45 46 47 48 49 50
187
ASUS45 KCYS 282110
RWRWY

WYOMING REGIONAL WEATHER ROUNDUP
NATIONAL WEATHER SERVICE CHEYENNE WY
200 PM MST TUE FEB 28 2017

NOTE:  "FAIR" INDICATES FEW OR NO CLOUDS BELOW 12,000 FEET
WITH NO SIGNIFICANT WEATHER AND/OR OBSTRUCTIONS TO VISIBILITY.

WYZ001-282200-
YELLOWSTONE NATIONAL PARK

CITY           SKY/WX    TMP DP  RH WIND       PRES   REMARKS
LK YELLOWSTONE   N/A     14   8  77 VRB5      29.68S WCI   6
W YELLOWSTONE  NOT AVBL

$$
WYZ002>013-054>058-071-098>099-282200-
NORTHERN WYOMING

CITY           SKY/WX    TMP DP  RH WIND       PRES   REMARKS
JACKSON        NOT AVBL
CODY           FAIR      33   6  32 W21G28    29.68S WCI  21
GREYBULL       CLOUDY    34  11  38 SE9       29.71S WCI  27
WORLAND        FAIR      35   2  24 CALM      29.70F
SHERIDAN       CLOUDY    38  10  31 SW14      29.66S WCI  30
BUFFALO        PTSUNNY   33  10  38 CALM      29.65S
GILLETTE       PTSUNNY   37   8  30 SW10      29.65S WCI  30
HULETT         MOCLDY    36  18  48 N8        29.66S WCI  29
NEWCASTLE      FAIR      32  21  64 S6        29.68S WCI  26

$$
WYZ014>020-022>026-101>103-282200-
CENTRAL WYOMING

CITY           SKY/WX    TMP DP  RH WIND       PRES   REMARKS
BIG PINEY      CLOUDY     7   1  76 E6        29.79S WCI  -3
PINEDALE       MOCLDY    12   5  73 S8        29.79S WCI   1
DUBOIS         CLOUDY    19   5  53 W25G32    29.65R HAZE    WCI   2
LANDER         FAIR      28   4  35 W24G36    29.72S WCI  14
RIVERTON       FAIR      26   9  48 S10       29.72S WCI  16
CASPER         FAIR      28   9  44 W17G26    29.71S WCI  16
DOUGLAS        FAIR      29  10  45 W20       29.71S WCI  16

$$
WYZ021-027>030-104>119-282200-
SOUTHERN WYOMING

CITY           SKY/WX    TMP DP  RH WIND       PRES   REMARKS
EVANSTON       LGT SNOW  20  12  71 W22G32    29.86R WCI   3
FORT BRIDGER   MOCLDY    23  16  75 W24       29.88R WCI   7
ROCK SPRINGS   FAIR      21  11  65 W20       29.83R WCI   6
DIXON            N/A     26  12  57 W12       29.87R WCI  15
RAWLINS        FAIR      20   8  60 W23G35    29.76S WCI   3
SARATOGA       MOCLDY    21  12  68 W20G28    29.79R WCI   6
LARAMIE        FAIR      23   8  52 W24G31    29.70R WCI   7
CHEYENNE       FAIR      31   9  39 W21G30    29.69R WCI  18
TORRINGTON     FAIR      32   8  36 W10       29.74R WCI  24
PINE BLUFFS    CLOUDY    32  12  43 NW17G25   29.72R WCI  21

$$




USA.gov is the U.S. government's official web portal to all federal, state and local government web resources and services.